TimeCDT,TemperatureF,Dew PointF,Humidity,Sea Level PressureIn,VisibilityMPH,Wind Direction,Wind SpeedMPH,Gust SpeedMPH,PrecipitationIn,Events,Conditions,WindDirDegrees,DateUTC
12:53 AM,55.9,51.1,84,30.10,10.0,ESE,5.8,-,N/A,,Partly Cloudy,110,2012-10-23 05:53:00
1:53 AM,55.4,51.8,88,30.10,10.0,ESE,4.6,-,N/A,,Partly Cloudy,110,2012-10-23 06:53:00
2:53 AM,55.0,50.0,83,30.08,10.0,East,5.8,-,N/A,,Partly Cloudy,80,2012-10-23 07:53:00
3:53 AM,55.0,50.0,83,30.09,10.0,East,4.6,-,N/A,,Partly Cloudy,90,2012-10-23 08:53:00
4:53 AM,54.0,48.9,83,30.10,10.0,East,5.8,-,N/A,,Partly Cloudy,100,2012-10-23 09:53:00
5:53 AM,53.1,48.9,86,30.12,10.0,East,4.6,-,N/A,,Partly Cloudy,100,2012-10-23 10:53:00
6:53 AM,54.0,48.9,83,30.14,10.0,East,4.6,-,N/A,,Scattered Clouds,90,2012-10-23 11:53:00
7:53 AM,55.9,52.0,87,30.17,10.0,ESE,3.5,-,N/A,,Mostly Cloudy,110,2012-10-23 12:53:00
8:53 AM,62.1,54.0,75,30.18,10.0,SE,3.5,-,N/A,,Mostly Cloudy,130,2012-10-23 13:53:00
9:53 AM,69.1,53.1,57,30.17,10.0,South,4.6,-,N/A,,Scattered Clouds,170,2012-10-23 14:53:00
10:53 AM,75.0,52.0,44,30.17,10.0,Variable,5.8,-,N/A,,Scattered Clouds,0,2012-10-23 15:53:00
11:53 AM,77.0,48.9,37,30.16,10.0,SW,9.2,-,N/A,,Scattered Clouds,230,2012-10-23 16:53:00
12:53 PM,78.1,48.9,36,30.13,10.0,SSW,5.8,-,N/A,,Partly Cloudy,210,2012-10-23 17:53:00
1:53 PM,79.0,48.9,35,30.11,10.0,SSW,6.9,-,N/A,,Partly Cloudy,200,2012-10-23 18:53:00
2:53 PM,79.0,48.0,34,30.08,10.0,Variable,4.6,-,N/A,,Partly Cloudy,0,2012-10-23 19:53:00
3:53 PM,79.0,48.9,35,30.08,10.0,Variable,5.8,-,N/A,,Scattered Clouds,0,2012-10-23 20:53:00
4:53 PM,78.1,50.0,37,30.07,10.0,SSE,5.8,-,N/A,,Scattered Clouds,150,2012-10-23 21:53:00
5:53 PM,72.0,51.1,48,30.07,10.0,South,3.5,-,N/A,,Scattered Clouds,180,2012-10-23 22:53:00
6:53 PM,66.9,50.0,54,30.08,10.0,SSW,3.5,-,N/A,,Partly Cloudy,200,2012-10-23 23:53:00
7:53 PM,62.1,52.0,70,30.08,10.0,SSE,4.6,-,N/A,,Partly Cloudy,150,2012-10-24 00:53:00
8:53 PM,60.1,53.1,78,30.09,10.0,SSE,4.6,-,N/A,,Partly Cloudy,160,2012-10-24 01:53:00
9:53 PM,60.1,51.1,72,30.09,10.0,SE,3.5,-,N/A,,Clear,130,2012-10-24 02:53:00
10:53 PM,59.0,52.0,78,30.10,10.0,Calm,Calm,-,N/A,,Clear,0,2012-10-24 03:53:00
11:53 PM,57.0,52.0,83,30.11,10.0,SE,4.6,-,N/A,,Clear,130,2012-10-24 04:53:00